STARLINK-31785, 60131

Orbit data source: Space-Track

STARLINK-31785, 60131 is a payload satellite owned by SpaceX/Seattle (US) in LEO that was launched on Mon, 24 Jun 2024 UTC via an FALCON 9 launch vehicle from the Air Force Western Test Range (AFWTR). Payload-class satellites include a variety of spacecraft equipped with specific instruments for various scientific and technological missions. These include communications satellites like Starlink; space stations such as the ISS; scientific satellites like the Hubble; Earth observation satellites from companies like Planet Labs, Umbra, and HawkEye 360; GPS; miniature CubeSats for education and research; and military/defense satellites.

Loading next visibility...
Identifier
60131, 2024-118U
Orbit
LEO
Country
Flag of USUS
Related business
Manufacturer
SpaceX/Seattle
Mission
Operational Commercial Communications
Bus & Motor
STARLINK V2M, Unknown motor
Mass
730 kg wet, ~700 kg dry
Launch date (UTC)
2024-06-24 (2 years ago)
Launch vehicle
FALCON 9
Launch site
Air Force Western Test Range (AFWTR)
Object type
Payload
Rocket body
Debris
Shape & HBR
Box + 2 Pan, 17.7 m
Radar Cross Section
33.884 m², Large (>1 m²)

Expand to show TLE details & history
Last TLE update: 17 hours ago

TLE from 17 hours ago
0 STARLINK-31785
1 60131U 24118U   26035.68084311  .00001637  00000-0  67384-4 0  9993
2 60131  53.1575 179.9656 0001258  81.6488 278.4656 15.30196450 90644
Epoch: 2026-02-04T16:20Z
TLE epoch observation values (Epoch: 2026-02-04T16:20:24.844Z)
Latitude
0.00002°
Longitude
160.01816°
Altitude
475.998 km
Speed
7.629 km/s
True Right ascension
11h 59m 51s
True Declination
0° 00' 00"
Sunlit
Object was in full shadow at epoch
Visualization orbit readout
Latitude
Unknown
Longitude
Unknown
Altitude
Unknown
Speed
Unknown
Apparent Right ascension
Unknown
Apparent Declination
Unknown
Sunlit
N/A
Visualization observer readout
Local Sidereal Time
11:06:43
Azimuth
Unknown
Elevation
Unknown
Doppler factor
Unknown
Orbital elements
Apogee altitude
476.345 km
Perigee altitude
474.62 km
Semi-major axis
6,853.62 km
Eccentricity
0.00013
Inclination
53.1575°
RAAN
179.9656°
Arg. of periapsis
81.6488°
True anomaly
278.45134°
Mean anomaly
278.4656°
Eccentric anomaly
278.45847°
Mean motion
3.82528 °/min
Orbital period
94.11 mins
BSTAR
0.000067384
Loading maneuver chart data...
Computing Atmospheric mass density...
Loading historical data...
Loading historical data...
Loading historical data...
Loading historical data...
Loading historical data...
Loading historical data...
Loading historical data...

Documentation

Showing up to 5 results
|